Tracking 17884 objects as of 7-December-2016
HD Live streaming from Space Station
objects crossing your sky now

METEOSAT 5 AKM

Track METEOSAT 5 AKM now!


NORAD ID: 21904
Int'l Code: 1991-015E
Perigee: 35,177.1 km
Apogee: 36,499.3 km
Inclination: 14.5 °
Period: 1,438.4 minutes
Semi major axis: 42209 km
RCS: 0.9471 m2 (medium)
Launch date: March 2, 1991
Source: European Space Agency (ESA)
Launch site: FRENCH GUIANA (FRGUI)

Note: This is a ROCKET BODY
Your satellite tracking list
Your tracking list is empty





NASA's NSSDC Master Catalog

Two Line Element Set (TLE):
1 21904U 91015E   16342.12237543 -.00000029  00000-0  00000+0 0  9996
2 21904  14.4597   7.2173 0156627 144.8191  33.0849  1.00113300 81648
Source of the keplerian elements: AFSPC